Precipitable_Water
0.52 0.62 0.87 0.86 0.70 0.75 0.68 0.79 0.99 0.92 0.97 1.24 1.27 1.14 1.03 1.05 0.89 0.71 1.13 1.21 1.16 1.15 1.23 1.24 1.22 1.26 1.20 1.10 1.08 1.06 1.02 0.98 1.00 1.00 0.99 1.02 1.08 1.15 1.19 1.25 1.27 1.28 1.26 1.25 1.26 1.27 1.26 1.28 1.27
0.50 0.54 0.76 0.73 0.59 0.55 0.63 0.88 0.88 0.98 1.08 1.24 1.21 1.03 0.79 0.74 0.92 1.05 1.08 1.34 1.14 1.07 1.20 1.22 1.19 1.20 1.15 1.08 1.08 1.08 1.05 1.01 1.04 1.10 1.11 1.12 1.15 1.18 1.25 1.31 1.34 1.33 1.32 1.30 1.27 1.22 1.23 1.24 1.29
0.55 0.64 0.59 0.59 0.59 0.55 0.65 0.85 0.95 1.04 1.10 1.06 1.00 0.99 0.94 0.75 0.94 1.07 1.30 1.17 1.18 1.05 1.18 1.21 1.18 1.19 1.12 1.06 1.07 1.07 1.06 1.07 1.08 1.12 1.13 1.12 1.13 1.19 1.23 1.27 1.30 1.33 1.33 1.31 1.25 1.21 1.17 1.20 1.22
0.49 0.55 0.61 0.52 0.49 0.52 0.59 0.89 0.94 0.86 0.95 0.94 0.90 0.73 1.12 1.25 1.01 1.08 1.13 1.18 1.07 1.03 1.17 1.23 1.21 1.20 1.13 1.09 1.07 1.07 1.07 1.07 1.09 1.12 1.11 1.11 1.13 1.19 1.21 1.23 1.27 1.31 1.32 1.31 1.28 1.22 1.16 1.17 1.22
0.51 0.50 0.47 0.45 0.43 0.52 0.63 0.93 0.86 0.77 0.81 0.85 0.85 0.80 0.87 1.24 1.35 1.18 1.12 1.13 0.90 1.01 1.15 1.20 1.21 1.21 1.13 1.11 1.11 1.11 1.09 1.07 1.08 1.09 1.10 1.07 1.12 1.19 1.21 1.24 1.24 1.26 1.28 1.29 1.27 1.21 1.13 1.13 1.18
0.42 0.47 0.44 0.38 0.47 0.45 0.75 0.88 0.75 0.79 0.82 0.77 0.74 0.72 0.74 1.06 1.08 1.08 1.12 1.09 1.03 0.96 1.08 1.14 1.16 1.15 1.10 1.09 1.09 1.09 1.10 1.10 1.07 1.07 1.08 1.05 1.09 1.16 1.19 1.22 1.23 1.23 1.24 1.26 1.26 1.22 1.15 1.18 1.17
0.44 0.47 0.40 0.42 0.38 0.42 0.72 0.84 0.67 0.70 0.71 0.66 0.66 0.63 0.80 0.90 1.00 1.03 1.09 0.95 0.86 0.96 1.05 1.15 1.19 1.17 1.10 1.09 1.09 1.07 1.08 1.08 1.07 1.07 1.06 1.06 1.05 1.13 1.16 1.20 1.21 1.21 1.22 1.26 1.27 1.28 1.24 1.26 1.28
0.47 0.47 0.42 0.40 0.38 0.41 0.72 0.81 0.80 0.68 0.63 0.77 0.71 0.63 0.69 0.91 1.02 1.08 1.18 1.11 1.00 0.95 0.89 0.95 1.04 1.09 1.07 1.06 1.05 1.05 1.06 1.08 1.08 1.07 1.07 1.08 1.06 1.08 1.12 1.17 1.20 1.22 1.24 1.26 1.28 1.31 1.29 1.32 1.35
0.52 0.42 0.38 0.38 0.41 0.44 0.75 0.65 0.79 0.83 0.71 0.70 0.65 0.66 0.81 0.99 1.00 1.01 1.08 1.10 1.03 1.05 1.00 0.89 0.91 0.98 1.02 1.04 1.03 1.02 1.02 1.03 1.05 1.07 1.09 1.10 1.10 1.08 1.10 1.13 1.15 1.18 1.20 1.20 1.20 1.25 1.35 1.37 1.43
0.44 0.41 0.38 0.44 0.44 0.39 0.62 0.69 0.65 0.68 0.65 0.58 0.54 0.65 0.93 0.97 0.91 0.85 1.06 1.05 1.12 1.16 1.12 1.03 0.89 0.90 0.96 0.98 0.99 0.98 0.98 1.00 1.01 1.04 1.06 1.07 1.07 1.08 1.20 1.17 1.25 1.31 1.33 1.34 1.17 1.15 1.19 1.35 1.44
0.41 0.40 0.43 0.43 0.40 0.38 0.47 0.55 0.73 0.63 0.53 0.51 0.40 0.56 0.91 0.99 0.85 0.92 1.08 1.11 1.15 1.30 1.31 1.21 1.06 0.88 0.88 0.92 0.95 0.97 1.02 0.98 0.98 0.98 1.01 1.03 1.04 1.06 1.26 1.30 1.31 1.31 1.39 1.41 1.33 1.36 1.33 1.44 1.55
0.33 0.42 0.42 0.40 0.35 0.34 0.34 0.50 0.63 0.65 0.51 0.59 0.57 0.57 0.78 0.83 0.93 1.03 1.05 1.25 1.24 1.09 1.17 1.29 1.17 1.11 1.08 1.04 1.08 1.20 1.18 1.05 1.00 0.98 0.97 0.99 1.00 1.11 1.21 1.28 1.33 1.35 1.40 1.42 1.48 1.47 1.47 1.52 1.59
0.29 0.38 0.36 0.35 0.31 0.28 0.33 0.33 0.40 0.58 0.68 0.80 0.80 0.75 0.80 0.86 1.02 1.12 1.11 1.17 1.21 1.21 1.21 1.32 1.31 1.22 1.24 1.18 1.17 1.20 1.20 1.15 1.23 1.26 1.25 1.24 1.18 1.07 1.19 1.22 1.30 1.34 1.42 1.41 1.44 1.46 1.46 1.46 1.52
0.24 0.30 0.31 0.32 0.31 0.26 0.27 0.29 0.33 0.47 0.66 0.80 0.83 0.82 0.95 1.01 1.17 1.20 1.13 1.16 1.14 1.18 1.26 1.32 1.36 1.38 1.36 1.27 1.18 1.23 1.30 1.31 1.34 1.40 1.42 1.47 1.43 1.30 1.25 1.23 1.22 1.29 1.36 1.38 1.38 1.37 1.39 1.44 1.51
0.20 0.19 0.22 0.24 0.27 0.22 0.25 0.24 0.25 0.34 0.49 0.63 0.77 0.88 1.04 1.06 1.11 1.10 1.19 1.16 1.24 1.19 1.30 1.34 1.37 1.40 1.39 1.34 1.28 1.28 1.34 1.35 1.34 1.37 1.43 1.47 1.53 1.50 1.40 1.35 1.25 1.21 1.27 1.29 1.32 1.33 1.38 1.41 1.49
0.18 0.17 0.13 0.20 0.21 0.22 0.19 0.12 0.18 0.25 0.33 0.48 0.66 0.81 0.86 0.99 1.09 1.12 1.17 1.25 1.29 1.23 1.22 1.29 1.38 1.40 1.41 1.51 1.48 1.49 1.46 1.42 1.41 1.43 1.49 1.54 1.61 1.56 1.57 1.54 1.41 1.39 1.28 1.29 1.31 1.28 1.26 1.37 1.43
0.17 0.12 0.13 0.14 0.16 0.17 0.17 0.15 0.20 0.27 0.34 0.48 0.63 0.72 0.73 0.85 1.06 1.24 1.35 1.44 1.41 1.32 1.33 1.34 1.42 1.46 1.46 1.57 1.68 1.64 1.58 1.60 1.65 1.69 1.73 1.78 1.87 1.81 1.73 1.76 1.74 1.71 1.53 1.46 1.41 1.38 1.35 1.30 1.34
0.11 0.12 0.18 0.18 0.21 0.22 0.21 0.20 0.23 0.25 0.27 0.47 0.57 0.62 0.69 0.77 0.91 1.17 1.35 1.50 1.61 1.60 1.57 1.56 1.54 1.53 1.58 1.65 1.73 1.71 1.60 1.63 1.71 1.73 1.77 1.92 1.87 1.77 1.40 1.76 1.80 1.80 1.73 1.57 1.51 1.44 1.44 1.42 1.44
0.17 0.17 0.20 0.23 0.27 0.26 0.25 0.23 0.24 0.28 0.31 0.48 0.55 0.59 0.68 0.78 0.99 1.16 1.25 1.35 1.37 1.46 1.47 1.43 1.43 1.52 1.55 1.59 1.58 1.53 1.52 1.53 1.54 1.63 1.70 1.75 1.76 1.70 1.71 1.79 1.92 1.72 1.82 1.68 1.58 1.47 1.37 1.39 1.42
0.18 0.21 0.22 0.25 0.28 0.28 0.25 0.23 0.25 0.32 0.33 0.46 0.51 0.60 0.66 0.78 0.92 1.06 1.10 1.19 1.26 1.29 1.35 1.30 1.37 1.47 1.49 1.51 1.51 1.57 1.56 1.61 1.60 1.60 1.65 1.73 1.75 1.74 1.77 1.72 1.77 1.79 1.80 1.69 1.60 1.54 1.43 1.42 1.44
0.20 0.21 0.23 0.23 0.30 0.31 0.26 0.22 0.27 0.32 0.35 0.49 0.60 0.61 0.72 0.71 0.75 0.87 0.97 1.02 1.02 0.99 1.02 1.09 1.15 1.26 1.38 1.50 1.54 1.57 1.58 1.56 1.53 1.53 1.61 1.64 1.73 1.69 1.83 1.74 1.80 1.66 1.61 1.53 1.57 1.55 1.45 1.34 1.42
0.20 0.26 0.27 0.26 0.27 0.23 0.29 0.20 0.26 0.31 0.35 0.41 0.54 0.63 0.67 0.72 0.81 0.87 0.88 0.87 0.89 0.95 1.01 0.99 1.00 1.05 1.17 1.29 1.35 1.35 1.34 1.34 1.46 1.53 1.51 1.51 1.63 1.56 1.55 1.52 1.46 1.42 1.42 1.31 1.32 1.36 1.35 1.33 1.17
0.21 0.25 0.27 0.28 0.25 0.26 0.26 0.24 0.22 0.27 0.29 0.38 0.54 0.60 0.67 0.73 0.80 0.85 0.90 0.92 0.93 0.97 0.92 0.95 1.00 1.04 1.12 1.21 1.33 1.32 1.33 1.37 1.41 1.32 1.33 1.33 1.31 1.26 1.27 1.21 1.12 1.03 1.03 1.03 0.98 0.97 0.99 1.05 1.01
0.33 0.30 0.30 0.29 0.25 0.19 0.24 0.24 0.21 0.23 0.26 0.29 0.52 0.67 0.74 0.79 0.87 0.97 1.02 1.00 0.97 0.96 0.89 0.96 0.98 0.98 1.07 1.12 1.16 1.18 1.17 1.20 1.20 1.17 1.12 1.10 1.06 0.98 0.88 0.81 0.77 0.74 0.71 0.69 0.67 0.73 0.72 0.74 0.75
0.32 0.29 0.21 0.20 0.19 0.16 0.22 0.21 0.21 0.23 0.22 0.26 0.40 0.59 0.76 0.84 0.86 0.93 0.98 0.99 0.97 0.88 0.89 0.89 0.86 0.80 0.86 0.83 0.82 0.84 0.80 0.88 0.88 0.81 0.77 0.75 0.70 0.67 0.67 0.66 0.63 0.62 0.64 0.63 0.62 0.62 0.66 0.72 0.68
0.29 0.31 0.26 0.20 0.20 0.20 0.28 0.20 0.19 0.25 0.29 0.35 0.43 0.56 0.78 0.88 0.96 1.00 1.05 1.04 0.94 0.88 0.90 0.82 0.76 0.75 0.76 0.74 0.69 0.72 0.72 0.72 0.73 0.74 0.71 0.66 0.65 0.66 0.68 0.65 0.62 0.59 0.56 0.57 0.57 0.53 0.54 0.57 0.64
0.30 0.28 0.37 0.31 0.30 0.25 0.26 0.27 0.28 0.29 0.34 0.39 0.46 0.65 0.76 0.92 0.98 1.03 1.11 1.06 0.92 0.92 0.90 0.84 0.78 0.79 0.77 0.74 0.71 0.70 0.72 0.71 0.72 0.73 0.69 0.66 0.66 0.65 0.64 0.63 0.60 0.58 0.55 0.55 0.52 0.47 0.45 0.50 0.54
0.43 0.43 0.33 0.34 0.25 0.22 0.25 0.25 0.23 0.30 0.33 0.48 0.59 0.68 0.82 0.97 1.03 1.08 1.11 1.03 0.98 0.98 0.98 0.89 0.86 0.79 0.83 0.79 0.78 0.76 0.75 0.73 0.72 0.71 0.66 0.65 0.67 0.66 0.64 0.62 0.59 0.54 0.50 0.48 0.44 0.41 0.41 0.42 0.51
0.38 0.39 0.41 0.41 0.37 0.28 0.23 0.26 0.37 0.34 0.37 0.44 0.58 0.70 0.79 0.88 1.00 1.07 1.10 1.03 1.04 1.05 1.00 0.96 0.89 0.80 0.84 0.83 0.81 0.75 0.77 0.71 0.71 0.69 0.69 0.68 0.68 0.65 0.62 0.60 0.55 0.49 0.43 0.43 0.41 0.40 0.42 0.41 0.43
0.44 0.40 0.46 0.39 0.32 0.38 0.33 0.31 0.54 0.58 0.60 0.68 0.71 0.80 0.88 0.98 1.05 1.12 1.10 1.03 1.09 1.05 1.01 0.97 0.94 0.88 0.87 0.87 0.79 0.74 0.78 0.77 0.74 0.72 0.71 0.70 0.66 0.67 0.64 0.61 0.58 0.51 0.46 0.44 0.41 0.41 0.45 0.42 0.41
Wind_Speed
4 3 1 1 4 5 6 3 4 5 11 11 8 5 2 0 2 2 7 10 12 12 13 12 11 10 8 7 6 6 6 6 6 7 7 7 8 8 9 9 10 10 10 10 10 9 9 8 7
4 3 3 4 6 6 6 8 9 7 5 6 7 5 6 3 4 8 10 10 12 12 12 11 10 9 8 7 6 6 5 5 5 5 6 6 6 7 7 8 9 9 10 10 9 9 8 7 6
3 4 6 5 6 5 5 10 11 12 9 5 5 6 4 4 7 7 9 12 12 12 11 11 10 9 8 7 6 5 5 4 4 4 4 4 4 5 5 6 7 8 9 9 9 9 9 7 7
4 6 6 6 4 4 1 10 11 6 3 6 4 3 2 1 4 5 12 12 11 11 10 10 9 8 7 7 6 5 4 3 3 2 2 2 2 3 3 4 5 6 7 8 9 10 9 8 7
6 7 7 5 5 4 2 10 6 1 2 2 0 3 1 1 5 9 10 10 10 10 9 9 8 8 7 6 6 5 4 3 3 2 1 1 1 1 2 3 4 5 6 8 9 10 10 9 8
7 8 6 3 4 6 4 8 4 3 4 3 3 2 3 6 7 8 9 9 10 9 9 8 8 7 7 6 6 5 4 3 3 2 2 1 1 1 1 2 3 4 6 7 8 10 10 9 9
10 9 8 5 4 2 7 6 4 5 5 5 5 2 5 10 10 9 8 9 10 9 8 8 8 7 7 6 5 5 4 4 3 3 3 3 3 3 3 4 4 5 6 7 8 9 10 10 10
11 10 7 4 2 1 6 5 4 3 6 6 4 6 7 9 10 8 8 8 9 8 8 8 8 7 7 6 5 5 5 4 4 4 5 5 5 5 6 6 6 6 7 8 8 9 10 10 10
13 11 8 5 3 2 5 4 5 5 3 3 2 5 8 12 10 10 9 9 8 6 6 7 7 7 7 6 5 5 5 5 5 5 5 6 6 7 7 8 8 8 8 9 9 10 11 11 11
16 14 10 8 3 3 6 4 5 4 4 2 6 6 8 10 10 10 10 10 8 7 5 5 6 7 6 6 6 6 6 6 6 6 6 7 7 7 8 8 9 9 10 10 11 11 11 11 11
18 17 13 11 8 7 7 4 6 5 5 6 9 8 9 9 8 9 11 11 9 8 6 5 5 6 6 6 6 6 6 7 7 8 8 8 9 9 9 9 9 10 10 11 11 11 11 12 12
18 17 15 12 9 8 7 6 7 9 8 9 8 7 9 9 11 11 10 9 11 8 7 8 5 5 5 6 7 7 8 8 9 9 9 10 10 10 10 10 11 11 11 12 12 12 13 14 14
20 18 16 16 13 12 10 9 10 13 10 8 8 8 9 10 9 12 12 12 9 9 10 11 8 6 7 6 8 8 9 9 9 9 9 10 10 11 12 12 13 13 13 13 13 14 15 16 16
18 19 20 18 17 14 13 13 11 15 12 12 11 11 9 8 10 13 15 14 11 11 11 13 11 10 9 9 10 10 9 9 10 10 11 11 10 11 12 12 13 13 14 15 16 16 17 18 18
15 18 19 18 16 16 13 14 16 15 15 17 15 11 8 11 9 14 15 14 13 13 12 13 12 12 11 11 11 11 11 11 12 12 13 13 12 12 12 12 14 14 14 15 16 17 18 18 19
13 13 16 17 16 16 14 17 16 17 16 14 13 12 8 5 5 5 9 12 14 12 13 13 13 13 13 13 12 13 14 14 14 14 15 16 16 15 14 14 15 16 17 17 17 17 17 18 18
11 13 14 14 16 15 15 16 14 15 17 17 16 13 11 9 6 6 7 8 9 12 11 13 14 14 14 13 13 14 14 15 15 15 16 18 20 15 17 16 17 17 18 18 18 18 18 19 21
14 12 12 13 11 13 17 19 17 16 20 19 18 16 14 12 10 10 11 10 9 8 9 11 13 15 15 16 16 16 17 18 18 19 18 18 18 16 19 17 18 18 19 19 19 20 21 22 23
15 16 17 17 16 16 24 27 21 18 18 19 19 18 16 15 14 12 12 13 13 13 12 13 13 14 16 17 17 18 17 18 17 18 19 19 19 19 18 18 19 20 18 19 21 22 24 24 26
17 18 21 21 18 15 15 21 21 21 20 22 22 20 18 16 16 14 13 13 14 16 16 16 16 17 16 17 18 18 18 17 17 18 18 18 19 18 19 20 20 21 21 22 24 24 25 26 27
19 19 21 22 17 15 11 14 16 21 21 22 23 22 20 19 18 17 16 15 14 16 17 16 16 17 17 18 17 16 17 17 18 18 18 18 19 21 19 21 21 23 24 26 26 27 27 28 28
20 20 23 19 15 17 14 16 16 19 23 23 24 23 22 21 19 18 17 16 15 15 16 15 16 16 17 17 18 18 18 18 19 19 19 19 20 20 22 23 24 25 25 26 26 27 28 28 29
21 22 23 21 20 16 18 15 20 16 21 25 26 26 26 24 23 21 19 16 15 14 14 14 15 16 16 16 17 17 17 18 19 19 19 20 22 22 23 23 24 24 25 25 26 27 27 28 28
21 20 20 19 19 25 23 20 24 22 22 22 28 29 27 26 24 22 20 18 17 14 13 13 13 14 14 14 14 15 16 17 17 18 18 19 20 21 21 21 22 23 24 25 25 26 26 26 26
22 16 18 19 20 24 23 26 28 26 27 27 28 31 32 30 27 25 23 21 19 17 15 13 13 13 14 14 14 14 15 16 16 17 18 19 20 20 21 22 23 23 24 25 25 25 25 25 25
25 21 20 23 21 25 23 26 29 28 29 30 30 31 30 30 28 27 24 23 22 19 18 15 14 14 14 14 14 15 16 16 16 17 17 18 18 19 19 20 21 21 22 23 24 24 24 25 25
26 25 24 26 24 23 24 28 28 26 26 28 26 27 29 30 29 28 26 24 23 21 20 18 16 15 15 15 15 14 14 14 15 15 15 16 16 17 19 20 21 23 24 24 25 25 25 24 25
26 24 25 22 22 28 25 25 25 24 23 21 21 26 27 26 28 28 27 26 24 22 21 18 17 17 15 16 16 16 15 14 13 14 15 16 17 18 20 21 22 23 23 24 25 25 26 26 26
24 26 25 25 25 29 33 29 27 30 29 28 28 29 29 29 28 28 28 27 25 23 22 20 19 19 18 16 17 15 15 13 14 15 15 16 17 19 20 21 22 23 24 25 26 27 27 27 27
27 27 25 23 27 23 23 25 20 16 17 21 24 28 31 32 31 29 29 27 25 24 23 21 21 20 18 18 17 15 15 15 16 15 16 16 17 19 20 22 23 25 26 27 28 29 29 29 29
Wind_Direction
288 282 248 75 110 92 119 101 72 82 79 72 100 105 99 54 237 225 156 157 161 160 159 161 161 158 154 148 140 130 120 111 102 96 92 86 81 75 70 64 57 51 48 45 43 43 44 44 43
266 237 162 121 111 96 86 117 83 60 104 95 79 65 67 79 83 132 144 156 158 160 162 163 163 162 159 155 148 140 130 122 112 104 96 89 82 76 68 60 53 47 43 39 36 34 32 32 29
241 197 167 150 128 115 106 130 120 82 68 81 81 52 59 74 112 136 154 154 156 159 162 165 167 167 167 166 162 155 147 138 128 116 104 95 85 77 64 55 48 41 36 33 29 25 23 20 17
203 176 161 157 198 229 241 170 146 123 69 65 57 51 354 27 124 148 150 155 157 159 163 167 170 173 175 176 176 175 172 165 156 142 126 106 91 74 56 45 38 32 28 25 22 19 15 13 6
190 174 172 181 235 257 247 189 233 299 284 266 24 247 255 169 138 145 154 161 161 163 168 172 174 177 179 181 184 185 186 187 186 184 179 171 146 82 38 27 20 17 16 17 15 11 9 5 360
187 174 175 205 212 296 192 204 188 218 218 245 322 259 237 159 147 152 159 167 171 171 172 174 175 177 179 182 183 186 188 190 192 198 205 209 217 245 315 338 346 350 356 0 4 4 3 0 356
183 175 186 195 286 255 195 211 225 220 236 264 305 255 150 151 144 140 144 158 167 172 178 182 184 184 186 188 192 197 201 208 219 232 243 248 253 262 278 294 307 320 330 340 347 351 353 352 352
187 180 183 190 21 151 183 215 206 235 256 281 305 176 173 163 157 148 146 144 155 169 178 183 187 190 192 195 199 209 218 229 242 252 260 265 265 267 273 283 292 301 311 320 329 334 339 345 344
190 180 194 192 112 25 188 194 246 259 239 266 216 180 178 162 159 157 155 158 160 152 165 179 186 193 197 201 212 219 230 242 255 263 267 270 271 272 274 278 286 292 299 307 313 319 327 335 335
190 188 199 193 232 298 214 266 214 211 233 237 156 154 164 167 170 174 180 176 175 172 164 173 190 198 203 217 224 231 241 252 260 267 270 274 275 276 280 279 283 290 296 301 305 309 316 325 325
200 200 214 234 253 286 225 223 221 197 238 206 197 190 193 206 201 194 192 197 199 201 203 195 196 203 212 225 228 238 253 261 266 270 272 275 278 277 278 283 286 289 293 301 306 309 313 319 322
208 214 217 234 251 259 249 214 224 234 230 213 210 208 204 222 223 201 197 198 199 210 218 211 206 216 227 231 237 250 266 266 270 272 272 276 277 276 277 282 286 288 290 296 299 303 307 310 310
213 222 229 242 255 256 246 232 243 235 239 219 221 225 226 225 222 219 206 208 217 224 224 222 222 236 243 251 255 262 269 268 268 272 276 278 282 279 278 284 287 285 288 293 296 300 302 306 305
220 233 243 251 252 243 241 248 238 234 236 229 229 238 234 248 236 227 223 226 230 233 229 228 234 245 249 258 259 262 267 269 271 273 279 281 287 286 282 286 290 287 287 290 294 298 301 301 302
230 241 248 245 243 240 238 253 244 239 233 231 233 232 243 252 247 236 233 231 236 237 236 232 238 249 252 255 258 259 264 269 272 273 275 280 282 287 288 289 290 290 292 294 295 298 299 300 300
242 239 246 244 237 241 235 253 245 238 223 220 220 216 219 220 224 235 226 232 231 241 234 237 244 253 258 260 262 268 265 272 272 272 277 275 277 280 285 291 294 292 291 293 296 299 302 305 306
241 242 247 251 236 239 235 245 243 227 217 215 212 211 211 211 225 240 229 235 240 241 245 244 249 253 258 263 268 274 272 274 276 278 281 280 277 276 281 286 293 296 290 291 295 298 301 302 303
235 244 243 240 243 239 246 248 246 231 221 214 212 213 214 217 230 243 233 232 239 245 248 254 255 255 260 264 271 276 275 275 279 283 286 284 285 291 294 285 293 295 289 291 293 296 300 300 302
240 241 247 252 257 260 256 243 233 227 214 213 214 214 218 227 238 242 237 237 241 247 256 261 261 263 262 264 268 274 276 277 280 284 287 286 286 287 283 288 289 297 292 294 295 295 299 299 301
241 246 254 261 262 263 263 235 227 225 226 219 217 222 225 234 240 244 243 246 251 251 255 260 265 268 268 266 269 271 273 278 279 282 286 288 287 287 285 287 287 293 294 295 297 297 297 297 300
244 244 252 254 261 264 255 251 233 234 232 226 228 231 232 230 238 242 246 254 260 258 257 259 262 268 270 269 267 270 273 277 281 284 284 287 285 292 285 289 289 292 293 295 296 296 297 296 297
249 246 252 257 257 253 240 248 248 239 235 229 232 235 236 238 241 244 247 254 259 261 258 257 262 268 271 273 269 270 273 276 279 282 286 288 289 289 291 292 293 294 294 296 296 297 296 296 297
250 255 255 252 252 253 243 245 246 247 239 240 239 239 242 240 240 242 246 249 254 259 254 258 265 268 270 270 269 271 273 275 278 282 287 289 291 293 294 295 296 296 297 298 298 299 299 299 298
257 258 258 258 250 252 246 242 249 244 247 250 246 245 242 240 241 242 244 245 249 250 248 260 268 269 270 270 271 271 273 274 277 283 287 291 294 296 297 299 300 300 300 300 300 300 301 301 301
248 255 260 260 252 252 249 252 253 253 255 252 247 244 241 240 239 241 238 238 241 241 247 260 266 269 270 270 272 274 277 274 276 281 286 290 293 295 297 299 300 301 301 302 302 302 302 302 302
248 242 245 253 253 258 251 252 256 256 257 254 251 245 238 237 237 235 234 234 235 237 246 258 264 270 271 271 272 277 276 277 278 281 286 289 292 295 298 301 304 305 305 305 305 304 304 304 303
251 246 249 257 257 259 256 261 263 261 260 261 248 237 236 236 233 231 231 230 232 236 245 249 262 268 269 271 269 280 279 280 280 283 286 290 294 297 300 302 303 305 305 305 305 305 306 305 303
244 251 255 254 252 258 258 259 260 257 256 254 242 235 233 233 229 228 229 230 231 237 242 248 260 269 266 270 272 274 276 279 280 286 288 290 294 298 301 303 305 306 306 306 306 306 305 304 303
253 253 253 256 248 258 263 261 261 258 257 246 244 239 235 230 227 227 229 231 234 236 240 251 258 261 263 268 267 268 270 272 280 285 285 289 294 298 302 304 307 308 308 308 307 307 305 304 302
253 254 250 251 254 254 254 259 265 273 261 254 246 243 237 228 224 226 228 231 234 235 244 250 254 254 254 265 260 263 262 272 280 281 284 288 294 298 301 304 306 307 307 307 306 305 303 302 301